FW4822 Weather Reports


Display with metric or nautical units.
time (UTC)temp
F
wind
direction
speed
MPH
gust
MPH
rain 1hr
in
rain 24hr
in
rain mn
in
humidity
%
barometer
mb
20260506211526 46 19 1.0 6.0 0.00 0.40 0.40 95 1008.1
20260506210024 46 49 1.0 6.0 0.00 0.40 0.40 96 1008.1
20260506204523 46 5 2.0 5.0 0.00 0.40 0.40 96 1007.9
20260506203030 46 350 1.0 7.0 0.00 0.42 0.40 95 1007.8
20260506201525 46 44 3.0 7.0 0.00 0.42 0.40 95 1007.4
20260506200025 46 5 2.0 7.0 0.00 0.42 0.40 96 1007.1
20260506194522 47 37 1.0 3.0 0.00 0.42 0.40 96 1007.1
20260506193019 46 46 1.0 7.0 0.00 0.42 0.40 96 1006.8
20260506191519 46 355 4.0 8.0 0.00 0.42 0.40 95 1006.6
20260506190025 47 40 3.0 8.0 0.01 0.42 0.40 96 1006.5
20260506184516 47 15 4.0 9.0 0.01 0.42 0.40 96 1006.4
20260506183014 47 29 4.0 10.0 0.04 0.42 0.40 96 1006.4
20260506181511 47 11 3.0 8.0 0.05 0.42 0.40 95 1006.1
20260506180009 47 5 2.0 6.0 0.04 0.41 0.39 95 1005.9
20260506174509 48 42 3.0 6.0 0.04 0.41 0.39 95 1005.6
20260506173002 49 10 3.0 8.0 0.02 0.39 0.37 95 1005.3
20260506171604 52 15 6.0 9.0 0.00 0.37 0.35 91 1005.0
20260506170054 55 247 0.0 6.0 0.00 0.37 0.35 96 1004.8
20260506164558 55 226 1.0 5.0 0.00 0.37 0.35 95 1004.9
20260506163116 55 258 2.0 7.0 0.00 0.37 0.35 96 1004.8
20260506161556 54 274 1.0 6.0 0.00 0.37 0.35 96 1004.8
20260506160056 54 241 1.0 8.0 0.00 0.37 0.35 96 1004.8
20260506154555 54 213 1.0 11.0 0.00 0.37 0.35 96 1004.7
20260506153109 54 232 4.0 12.0 0.00 0.37 0.35 96 1004.4
20260506151552 54 167 2.0 7.0 0.00 0.37 0.35 96 1004.6
20260506150051 53 229 1.0 11.0 0.00 0.37 0.35 95 1004.7
20260506144550 53 249 2.0 12.0 0.01 0.37 0.35 96 1004.7
20260506143050 53 240 1.0 10.0 0.02 0.37 0.35 96 1004.7
20260506141553 53 230 4.0 11.0 0.03 0.37 0.35 96 1004.4
20260506140051 53 200 5.0 10.0 0.04 0.37 0.35 95 1004.2
20260506134548 53 231 0.0 9.0 0.04 0.36 0.34 95 1004.3
20260506133050 53 166 1.0 8.0 0.05 0.35 0.33 95 1004.4
20260506131601 53 225 1.0 8.0 0.08 0.34 0.32 95 1004.6
20260506130053 53 225 3.0 13.0 0.11 0.33 0.31 95 1004.7
20260506124549 53 207 1.0 14.0 0.11 0.32 0.30 95 1004.6
20260506123049 53 209 0.0 5.0 0.12 0.30 0.28 95 1005.0
20260506121553 53 275 0.0 4.0 0.11 0.27 0.25 95 1005.5
20260506120043 53 225 1.0 7.0 0.09 0.23 0.21 95 1005.3
20260506114542 53 236 2.0 9.0 0.10 0.22 0.20 95 1005.0
20260506113041 53 198 0.0 6.0 0.08 0.19 0.17 95 1004.9
20260506111536 53 240 1.0 5.0 0.05 0.16 0.14 94 1004.8
20260506110039 53 227 2.0 8.0 0.04 0.14 0.12 94 1004.8
20260506104535 53 221 0.0 2.0 0.03 0.12 0.10 94 1004.8
20260506103033 53 240 0.0 3.0 0.03 0.15 0.09 94 1004.9
20260506101539 53 240 1.0 4.0 0.05 0.15 0.09 93 1004.9
20260506100038 53 223 2.0 6.0 0.05 0.14 0.08 93 1005.0
20260506094535 53 238 2.0 8.0 0.04 0.13 0.07 92 1005.1
20260506093035 54 241 1.0 4.0 0.03 0.12 0.06 91 1005.1
20260506091526 54 277 2.0 7.0 0.02 0.10 0.04 90 1005.2
20260506090024 55 250 1.0 7.0 0.02 0.10 0.04 88 1005.1
20260506084533 55 237 3.0 8.0 0.02 0.09 0.03 87 1005.3
20260506083024 55 257 1.0 8.0 0.02 0.09 0.03 85 1005.4
20260506081520 55 291 2.0 8.0 0.02 0.08 0.02 84 1005.3
20260506073011 58 248 3.0 11.0 0.01 0.07 0.01 75 1005.7
20260506071508 59 244 3.0 12.0 0.00 0.06 0.00 72 1005.5
20260506061508 60 231 1.0 8.0 0.00 0.06 0.06 70 1005.3
20260506050116 60 223 1.0 4.0 0.00 0.06 0.06 72 1006.6
20260506044558 60 223 0.0 3.0 0.00 0.06 0.06 72 1006.6
20260506043100 61 223 0.0 3.0 0.00 0.06 0.06 71 1006.7
20260506041604 61 203 0.0 2.0 0.00 0.06 0.06 70 1006.7
20260506040056 62 200 0.0 10.0 0.00 0.06 0.06 70 1006.5
20260506034601 61 223 1.0 6.0 0.00 0.06 0.06 70 1006.5
20260506033056 62 205 0.0 2.0 0.00 0.06 0.06 70 1006.6
20260506031556 62 196 0.0 4.0 0.00 0.06 0.06 69 1006.8
20260506030058 62 176 0.0 3.0 0.00 0.06 0.06 68 1006.7
20260506024607 63 228 0.0 1.0 0.00 0.06 0.06 66 1006.9
20260506023109 63 228 0.0 0.0 0.00 0.06 0.06 64 1006.8
20260506021555 64 228 0.0 0.0 0.00 0.06 0.06 61 1007.1
20260506020058 64 228 0.0 2.0 0.00 0.06 0.06 60 1006.8
20260506014555 65 273 0.0 1.0 0.00 0.06 0.06 59 1006.9
20260506013100 65 273 0.0 2.0 0.00 0.06 0.06 58 1006.7
20260506011605 65 273 0.0 0.0 0.00 0.06 0.06 57 1006.6
20260506010056 66 231 0.0 5.0 0.00 0.06 0.06 56 1006.3
20260506004559 66 227 1.0 6.0 0.00 0.06 0.06 56 1006.4
20260506003056 66 244 0.0 3.0 0.00 0.06 0.06 55 1006.2
20260506001556 67 252 0.0 3.0 0.00 0.06 0.06 53 1006.2
20260506000058 67 254 0.0 4.0 0.00 0.06 0.06 51 1005.7
20260505234551 67 243 0.0 5.0 0.00 0.06 0.06 51 1006.0
20260505233054 68 307 0.0 11.0 0.00 0.06 0.06 50 1005.9
20260505231557 68 299 4.0 15.0 0.00 0.06 0.06 50 1005.9
20260505230121 68 265 3.0 13.0 0.00 0.06 0.06 50 1005.9
20260505224557 68 257 4.0 16.0 0.00 0.06 0.06 49 1005.7
20260505223057 68 266 4.0 12.0 0.00 0.06 0.06 51 1005.7
20260505221559 68 76 3.0 14.0 0.00 0.06 0.06 55 1005.4
20260505220059 67 269 1.0 10.0 0.00 0.06 0.06 65 1005.4
20260505214553 67 229 4.0 15.0 0.00 0.06 0.06 63 1005.5
20260505213053 66 252 1.0 5.0 0.00 0.06 0.06 68 1005.4